Location: Peebles
(55.6410°N, 3.1709°W)
Time: 02:42:59
(UTC+00:00)

Daily predictions for brighter satellites

Satellite Brightness Start Highest point End
(mag) Time Altitude Azimuth Time Altitude Azimuth Time Altitude Azimuth
Cosmos 2360 Rocket 4.5 03:34:57 18° NNE 03:34:57 18° NNE 03:37:41 10° ENE
Cosmos 1980 Rocket 4.1 03:39:47 25° E 03:39:47 25° E 03:42:29 10° ESE
Cosmos 2237 Rocket 4.5 03:56:15 15° NNE 03:56:15 15° NNE 03:58:13 10° NE
Cosmos 2344 4.2 04:02:59 66° NW 04:04:56 84° NE 04:18:00 10° SE
SL-16 R/B 3.6 04:11:09 32° NE 04:11:09 32° NE 04:16:11 10° E
Cosmos 2322 Rocket 3.5 04:19:36 34° NNE 04:19:54 34° NE 04:25:02 10° ESE
ATLAS 5 CENTAUR R/B 3.5 04:23:31 31° NNE 04:23:31 31° NNE 04:27:09 10° ENE
Okean O Rocket 4.4 04:18:13 10° NNE 04:18:25 11° NNE 04:18:25 11° NNE
USA 267 3.6 04:20:52 10° ENE 04:27:16 54° SE 04:27:47 53° SSE
Lacrosse 5 rocket 4.2 04:38:16 13° SSE 04:38:16 13° SSE 04:38:46 10° SSE
COSMOS 2406 3.9 04:42:13 45° NNE 04:42:13 45° NNE 04:46:13 10° NNE
Okean 2 Rocket 4.4 04:41:37 39° E 04:41:37 39° E 04:45:47 10° NNE
Cosmos 1697 Rocket 3.9 04:45:28 31° SSE 04:45:28 31° SSE 04:48:17 10° SSE
CZ-4B DEB 4.3 04:40:24 10° NNE 04:45:48 73° E 04:45:48 73° E
SL-16 R/B 4.2 04:47:06 17° N 04:47:06 17° N 04:50:22 10° NE
Cosmos 2082 Rocket 3.5 04:43:08 13° S 04:47:45 39° ESE 04:53:00 10° NE
Cosmos 1763 Rocket 4.3 04:51:30 44° NNE 04:51:30 44° NNE 04:55:01 10° NNE
ADEOS II 4.1 04:50:43 10° N 04:51:56 17° N 04:51:56 17° N
Cosmos 2333 Rocket 4.0 04:56:33 19° N 04:57:54 20° NNE 05:02:08 10° ENE
Cosmos 1833 Rocket 3.5 04:56:52 16° S 05:01:02 48° ESE 05:06:25 10° NE
COSMOS 2428 4.4 04:59:21 20° N 05:01:12 24° NNE 05:05:47 10° ENE
COSMO-SKYMED 1 4.0 04:57:16 10° SSE 04:59:31 30° SSE 04:59:31 30° SSE
CZ-4B R/B 3.1 04:57:34 10° NNE 05:03:15 87° ESE 05:04:15 62° SSW
IDEFIX/ARIANE 42P 4.1 04:59:07 10° NNE 05:03:52 35° E 05:08:36 10° SSE
USA 234 4.1 05:01:04 10° SSE 05:05:55 33° SSW 05:05:55 33° SSW
Meteor 1-25 Rocket 4.1 05:14:52 70° WNW 05:14:54 70° WNW 05:20:46 10° NNE
Meteor 1-13 Rocket 4.2 05:15:36 53° NNW 05:17:02 77° W 05:22:58 10° S
PAYLOAD B 4.1 05:11:31 10° NNE 05:17:07 70° WNW 05:17:15 69° WNW
Cosmos 2360 Rocket 3.3 05:16:43 25° N 05:19:21 38° NE 05:24:38 10° ESE
Cosmos 1461 4.3 05:22:15 30° N 05:22:15 30° N 05:25:18 10° NE
Cosmos 1980 Rocket 2.2 05:21:36 61° WSW 05:21:36 61° WSW 05:27:03 10° SSE
SeaSat 1 2.3 05:21:46 10° NE 05:26:46 89° SE 05:28:05 50° SW
Meteor 1-11 Rocket 4.2 05:22:42 10° S 05:28:34 63° E 05:34:20 10° NNE
Cosmos 2219 Rocket 3.9 05:28:22 18° N 05:31:02 24° NNE 05:35:36 10° E
Meteor 2-4 Rocket 3.4 05:30:08 45° NNW 05:31:46 74° W 05:37:12 10° S
ERBS 3.3 05:34:13 45° ENE 05:34:13 45° ENE 05:36:41 10° ENE
DMSP B5D1-3 4.4 05:28:54 10° SSE 05:34:05 85° WSW 05:36:33 32° NNW
NOSS 2-1 (C) 4.3 05:38:10 40° NNW 05:38:10 40° NNW 05:43:06 10° NE
NOSS 2-1 (D) 4.4 05:38:21 40° NNW 05:38:21 40° NNW 05:43:20 10° NE
Cosmos 1867 4.3 05:39:27 36° NNW 05:39:52 36° NNW 05:44:56 10° NE
Cosmos 2237 Rocket 4.0 05:38:05 16° NNW 05:40:41 21° NNE 05:44:57 10° ENE
Cosmos 1536 3.3 05:37:40 10° S 05:41:40 60° E 05:45:40 10° NNE
Cosmos 841 Rocket 3.7 05:43:26 49° WNW 05:43:31 49° NW 05:48:40 10° NNE
Lacrosse 4 Rocket 3.5 05:45:11 15° N 05:45:11 15° N 05:47:09 10° NNE
Cosmos 44 Rocket 4.0 05:40:58 12° SSW 05:45:03 51° SE 05:49:41 10° NE
NOSS 3-3 (A) 4.4 05:44:07 40° WNW 05:46:10 52° NNW 05:53:15 10° ENE
NOSS 3-3 (C) 4.4 05:44:12 40° WNW 05:46:17 53° NNW 05:53:22 10° ENE
Thor Agena Rocket 3.6 05:42:46 10° SSE 05:47:48 78° ENE 05:51:59 16° NNW
IRS-1C Rocket 4.2 05:48:41 10° N 05:53:46 49° WNW 05:55:49 32° WSW
SL-16 R/B 2.1 05:53:01 31° NW 05:55:52 83° WSW 06:01:33 10° SSE
CZ-3B R/B 4.0 05:57:29 29° ESE 05:57:29 29° ESE 05:59:07 10° E
Okean 1-7 Rocket 4.1 05:53:08 12° N 05:57:16 62° ENE 06:01:45 10° SSE
Okean O Rocket 3.7 05:54:57 10° N 05:55:52 15° N 05:55:52 15° N
Cosmos 1184 Rocket 3.7 05:57:39 27° N 05:59:09 49° ENE 06:02:23 10° SSE
Cosmos 2279 Rocket 4.4 05:59:28 32° WNW 06:00:57 37° W 06:06:32 10° SSW
Cosmos 540 Rocket 3.5 05:58:36 28° SW 06:01:15 58° WNW 06:06:24 10° NNE
Cosmos 1515 3.5 06:00:49 37° NNW 06:02:14 84° W 06:06:04 10° S
Meteor 2-20 Rocket 4.4 05:57:00 10° S 06:03:08 87° E 06:09:16 10° NNE
RESURS DK-1 3.6 06:04:31 25° SW 06:04:31 25° SW 06:07:05 10° S
CZ-2C R/B 2.6 05:58:31 10° NNE 06:03:32 73° ESE 06:08:21 10° S
Meteor 1-4 Rocket 4.3 06:00:09 10° SSE 06:03:39 37° E 06:07:11 10° NNE
Cosmos 2322 Rocket 2.1 06:01:27 29° NW 06:04:29 76° WSW 06:10:09 10° SSE
NOSS 2-1 (E) 4.5 06:04:55 33° NW 06:05:59 37° N 06:11:12 10° ENE
ATLAS 5 CENTAUR R/B 2.9 06:05:04 27° NW 06:07:35 43° NNE 06:13:20 10° E
CZ-4 R/B 3.7 06:05:05 10° NE 06:08:36 26° E 06:12:09 10° SSE
USA 267 3.2 06:04:05 10° ENE 06:10:39 88° NNW 06:15:08 22° WSW
Cosmos 2151 Rocket 3.5 06:06:30 10° SSW 06:10:52 64° WNW 06:15:17 10° N
SJ-12 4.3 06:07:53 10° NNE 06:11:59 64° ESE 06:16:01 10° S
COSMOS 2487 2.4 06:12:01 53° W 06:12:17 55° WNW 06:15:47 10° NNE
Okean-O 2.6 06:11:36 10° N 06:15:59 58° WNW 06:20:20 10° SW
Cosmos 1484 Rocket 4.0 06:13:14 10° NNE 06:17:04 44° E 06:20:48 10° S
Meteor 1-5 Rocket 4.0 06:12:58 10° SSW 06:18:26 87° WNW 06:23:49 10° NNE
Okean 2 Rocket 3.7 06:19:09 32° W 06:19:43 34° WNW 06:23:53 10° N
Cosmos 2322 4.0 06:16:13 17° NNW 06:20:39 64° NE 06:26:17 10° SE
MSX 3.9 06:17:50 10° NNE 06:23:40 85° ESE 06:29:25 10° SSW
Okean 2 3.3 06:21:06 20° NNW 06:23:48 62° W 06:27:50 10° S
Cosmos 1697 Rocket 4.4 06:27:16 14° WSW 06:27:16 14° WSW 06:28:54 10° SW
COSMOS 2406 4.3 06:24:18 24° NW 06:25:44 26° NNW 06:30:33 10° NNE
Cosmos 1536 Rocket 4.4 06:26:06 28° W 06:26:06 28° W 06:29:34 10° SSW
Cosmos 2056 Rocket 4.1 06:23:13 12° NNW 06:27:49 52° NE 06:32:49 10° SE
Cosmos 1300 Rocket 3.4 06:24:50 10° SSW 06:29:07 65° WNW 06:33:27 10° N
Cosmos 44 2.9 06:25:41 13° SW 06:29:33 80° NW 06:34:03 10° NE
Cosmos 2082 Rocket 2.3 06:26:06 10° SW 06:31:43 55° NW 06:37:21 10° NNE
SL-16 R/B 3.9 06:28:59 12° NNW 06:32:53 22° NNE 06:37:15 10° ENE
ADEOS II 4.0 06:32:02 10° NNW 06:32:53 12° NNW 06:32:53 12° NNW
NOAA 6 4.3 06:29:49 10° N 06:34:42 45° WNW 06:39:34 10° SW
Cosmos 292 Rocket 4.1 06:33:41 10° WSW 06:38:11 41° NW 06:42:44 10° NNE
COSMO-SKYMED 1 4.4 06:35:21 10° SW 06:36:44 15° WSW 06:36:44 15° WSW
Cosmos 1025 Rocket 3.2 06:35:07 16° NNW 06:38:19 47° W 06:42:24 10° SSW
PAYLOAD A 4.3 06:34:07 10° N 06:39:23 52° WNW 06:44:37 10° SW
Cosmos 1743 4.4 06:37:26 10° SSE 06:40:56 35° E 06:44:28 10° NNE
CZ-4B R/B 4.2 06:38:46 10° N 06:43:14 25° NW 06:46:07 16° W
IDEFIX/ARIANE 42P 2.7 06:38:40 10° N 06:43:40 49° WNW 06:48:40 10° SW
Cosmos 2333 Rocket 3.2 06:38:34 11° NNW 06:43:45 42° NE 06:49:12 10° ESE
Cosmos 1437 Rocket 3.0 06:40:04 10° SW 06:43:52 45° WNW 06:47:38 10° N
Cosmos 1833 Rocket 2.9 06:39:38 10° WSW 06:45:03 46° NW 06:50:30 10° NNE
COSMOS 2428 3.2 06:41:21 12° NNW 06:46:38 61° NE 06:52:18 10° SE
COSMOS 2441 4.3 06:41:51 10° NNE 06:46:43 67° WNW 06:51:31 10° SSW
Aureole 2 Rocket 3.6 06:48:31 11° NNW 06:51:54 41° NE 06:55:08 10° SE
Cosmos 1066 Rocket 4.1 06:48:35 10° NNW 06:53:52 60° W 06:59:08 10° S
Cosmos 1975 3.0 06:51:51 10° S 06:55:49 75° E 06:59:49 10° NNE
Okean 1 Rocket 3.1 06:52:20 10° SSW 06:56:38 55° WNW 07:01:01 10° N
Ariane Rocket 3.2 06:52:38 10° NNE 06:57:44 79° ESE 07:02:48 10° SSW
Cosmos 2333 4.5 06:55:09 11° NNW 07:00:52 71° NE 07:06:39 10° SE
Cosmos 1461 4.5 06:58:42 15° NW 07:01:19 25° N 07:05:11 10° ENE
Nadezhda 4 Rocket 4.3 06:56:18 10° SW 07:02:05 42° WNW 07:07:53 10° N
Cosmos 2360 Rocket 2.3 06:58:30 12° NW 07:03:43 64° WSW 07:09:19 10° SSE
SeaSat 1 3.4 06:59:41 10° NNE 07:03:52 28° NW 07:07:53 11° W
Cosmos 192 4.4 06:59:08 10° SSW 07:04:03 89° ESE 07:09:01 10° NNE
CORIOLIS 4.4 06:58:40 10° NNE 07:04:05 76° ESE 07:09:26 10° SSW
Cosmos 1980 Rocket 3.9 07:03:25 13° W 07:04:22 13° W 07:07:00 10° WSW
Cosmos 1271 Rocket 4.0 07:03:31 10° SSE 07:07:06 43° E 07:10:42 10° NNE
ERBS 2.3 07:07:27 16° WNW 07:10:00 68° N 07:13:23 10° E
YAOGAN 1 3.0 07:05:47 10° NNE 07:10:08 66° ESE 07:14:26 10° S
Cosmos 1500 3.4 07:06:37 10° SSW 07:10:22 48° WNW 07:14:08 10° N
Cosmos 1892 Rocket 3.7 07:06:05 10° NNW 07:10:25 54° W 07:14:42 10° S
Timation 2 Rocket 4.2 07:03:37 10° SW 07:10:32 79° NW 07:17:26 10° NE
Cosmos 1624 Rocket 4.0 07:06:07 10° NNW 07:11:29 81° WSW 07:16:50 10° SSE
Meteor 1-11 Rocket 4.5 07:07:10 10° WSW 07:12:25 32° WNW 07:17:38 10° N
Cosmos 1626 Rocket 3.8 07:09:04 10° N 07:13:25 70° ENE 07:17:43 10° SSE
Cosmos 389 Rocket 3.1 07:10:29 10° S 07:14:04 61° E 07:17:40 10° NNE
Cosmos 1238 Rocket 4.3 07:08:41 10° N 07:15:29 81° ENE 07:21:57 10° SSE
Cosmos 2219 Rocket 2.6 07:10:26 10° NNW 07:16:05 64° NE 07:21:43 10° SE
S3M 4.0 07:10:06 10° NNW 07:16:11 65° W 07:22:19 10° S
IRAS Rocket 4.2 07:11:45 10° NNE 07:17:17 83° WNW 07:22:51 10° SSW
Cosmos 1536 4.1 07:15:27 10° WSW 07:18:30 20° WNW 07:21:33 10° NNW
Genesis I 3.9 07:16:02 12° NW 07:19:39 48° NNE 07:23:36 10° ESE
Cosmos 1680 Rocket 3.8 07:18:07 10° SSW 07:23:18 72° ESE 07:28:33 10° NNE
Cosmos 773 Rocket 4.0 07:19:42 10° SW 07:24:47 60° WNW 07:29:57 10° NNE
Lacrosse 4 Rocket 3.3 07:21:57 10° NNW 07:24:48 18° NNE 07:27:37 10° ENE
NOSS 0 Rocket 4.3 07:19:07 10° NW 07:25:16 64° NE 07:31:23 10° SE
Cosmos 2237 Rocket 2.9 07:20:36 10° NNW 07:26:08 49° NE 07:31:38 10° ESE
Cosmos 44 Rocket 3.5 07:22:08 10° WSW 07:26:42 47° NNW 07:31:21 10° NE
CZ-4C R/B 2.5 07:21:13 10° SW 07:26:43 80° SE 07:33:11 10° NE
deb Kosmos-1763 4.1 07:25:26 10° SW 07:29:09 65° WNW 07:32:53 10° NNE
Helios 1B rocket 3.2 07:26:49 10° SE 07:30:48 52° ENE 07:34:49 10° N
Cosmos 1371 Rocket 4.3 07:26:56 10° NW 07:32:02 51° WSW 07:37:03 10° S
Cosmos 1655 Rocket 4.0 07:29:53 10° SSW 07:36:05 65° WNW 07:42:23 10° N
CSL-04 Debris 4.2 07:31:20 10° NNE 07:36:41 59° WNW 07:42:01 10° SW
ARGOS Delta rocket 3.9 07:32:47 10° SSE 07:37:15 74° ENE 07:41:39 10° N
Meteor 1-4 Rocket 3.6 07:35:35 10° SW 07:38:52 27° WNW 07:42:11 10° N
SL-16 R/B 3.6 07:35:17 10° WNW 07:39:10 19° W 07:43:04 10° SW
Cosmos 1602 Rocket 3.5 07:35:42 10° NNW 07:40:03 75° W 07:44:22 10° S
GEOS 3 Rocket 3.7 07:35:15 10° NE 07:40:40 74° NW 07:46:04 10° WSW
CZ-2C R/B 3.4 07:37:22 10° N 07:41:20 24° NW 07:45:13 10° WSW
Cosmos 1666 2.7 07:39:14 10° SSW 07:43:03 63° WNW 07:46:52 10° N
CZ-4 R/B 1.7 07:39:53 10° N 07:43:49 46° WNW 07:47:49 10° SW
Cosmos 1538 Rocket 4.4 07:39:47 10° WSW 07:44:45 41° NW 07:49:48 10° NNE
Meteor 1-29 3.8 07:43:07 10° SE 07:46:28 49° ENE 07:49:48 10° N
Cosmos 2322 Rocket 3.8 07:44:05 10° WNW 07:47:39 17° W 07:51:13 10° SW
IRS-1A Rocket 4.2 07:42:15 10° NNE 07:47:46 77° WNW 07:53:18 10° SSW
COSMOS 2487 4.5 07:47:17 10° WNW 07:48:28 11° NW 07:49:39 10° NNW
Cosmos 1825 Rocket 4.2 07:44:46 10° N 07:49:04 56° ENE 07:53:19 10° SSE
SMAP 3.5 07:44:55 10° N 07:49:16 40° WNW 07:53:36 10° SW
ATLAS 5 CENTAUR R/B 2.4 07:47:13 10° NW 07:52:51 88° NNE 07:59:13 10° SE
USA 267 3.3 07:47:08 10° E 07:53:41 82° N 08:00:15 10° W
